Emporia, VA

1:18 PM EST on December 05, 2019 (GMT -0500)
Emporia-Greensville Regional

Weather History for KEMV - October, 2019

Change the Weather History Date:

Sunday, October 20, 2019

  Actual Average Record
Temperature  
Mean Temperature 60 °F -  
Max Temperature 66 °F 69 °F 84 °F (2016)
Min Temperature 54 °F 43 °F 26 °F (1992)
Degree Days  
Heating Degree Days 5    
Growing Degree Days 10 (Base 50)    
Moisture  
Dew Point 59 °F    
Average Humidity 95    
Maximum Humidity 100    
Minimum Humidity 78    
Precipitation  
Precipitation 2.51 in - - ()
Sea Level Pressure  
Sea Level Pressure 29.81 in    
Wind  
Wind Speed 6 mph (NNW)    
Max Wind Speed 15 mph    
Max Gust Speed 22 mph    
Visibility 6 miles    
Events      
Averages and records for this station are not official NWS values.
T = Trace of Precipitation, MM = Missing Value Source: NWS Daily Summary

Daily Weather History Graph

Daily Weather History Graph

Search for Another Location

Airport or City:

Astronomy

Oct. 20, 2019 Rise Set
Actual Time 7:21 AM EDT 6:27 PM EDT
Civil Twilight 6:55 AM EDT 6:53 PM EDT
Nautical Twilight 6:25 AM EDT 7:23 PM EDT
Astronomical Twilight 5:55 AM EDT 7:53 PM EDT
Moon 11:40 PM EDT (10/20) 1:41 PM EDT (10/20)
Length of Visible Light 11h 57m
Length of Day
11h 05m
Waning Gibbous, 59% of the Moon is Illuminated
Oct 20
Waning Gibbous
Oct 21
Last Quarter
Oct 27
New
Nov 4
First Quarter
Nov 12
Full

Hourly Weather History & Observations

Time (EDT) Temp. Dew Point Humidity Pressure Visibility Wind Dir Wind Speed Gust Speed Precip Events Conditions
12:15 AM 56.7 °F 50.5 °F 80% 30.00 in - Calm Calm - N/A   Overcast
12:35 AM 56.7 °F 51.4 °F 83% 29.99 in - Calm Calm - N/A   Overcast
12:55 AM 57.2 °F 51.1 °F 80% 29.99 in - Calm Calm - N/A   Overcast
1:15 AM 57.4 °F 51.3 °F 80% 29.97 in - Calm Calm - N/A   Overcast
1:35 AM 58.1 °F 51.3 °F 78% 29.96 in - ENE 3.5 mph - N/A   Overcast
1:55 AM 57.2 °F 51.8 °F 82% 29.96 in - ENE 3.5 mph - N/A   Overcast
2:15 AM 56.7 °F 51.8 °F 84% 29.95 in - North 3.5 mph - N/A   Overcast
2:35 AM 57.2 °F 51.4 °F 81% 29.94 in - North 4.6 mph - N/A   Overcast
2:55 AM 57.0 °F 52.2 °F 84% 29.93 in - Calm Calm - 0.01 in   Overcast
3:15 AM 55.6 °F 53.2 °F 92% 29.92 in - Calm Calm - 0.05 in   Overcast
3:35 AM 55.0 °F 54.0 °F 96% 29.92 in - NNE 3.5 mph - 0.11 in   Unknown
3:55 AM 54.7 °F 54.5 °F 99% 29.90 in - NNE 5.8 mph - 0.16 in   Unknown
4:15 AM 55.0 °F 55.0 °F 100% 29.89 in - NNE 5.8 mph - 0.02 in   Unknown
4:35 AM 55.6 °F 55.6 °F 100% 29.87 in - NNE 5.8 mph - 0.05 in   Overcast
4:55 AM 56.1 °F 56.1 °F 100% 29.86 in - NNE 6.9 mph - 0.07 in   Overcast
5:15 AM 56.7 °F 56.7 °F 100% 29.85 in - NE 5.8 mph - 0.04 in   Overcast
5:35 AM 57.4 °F 57.4 °F 100% 29.84 in - NNE 5.8 mph - 0.16 in   Overcast
5:55 AM 58.1 °F 58.1 °F 100% 29.83 in - NE 5.8 mph - 0.27 in   Overcast
6:15 AM 58.5 °F 58.5 °F 100% 29.83 in - NE 8.1 mph - 0.12 in   Overcast
6:35 AM 59.0 °F 59.0 °F 100% 29.81 in - NNE 8.1 mph - 0.32 in   Overcast
6:55 AM 59.5 °F 59.5 °F 100% 29.79 in - North 6.9 mph - 0.38 in   Overcast
7:35 AM 60.3 °F 60.3 °F 100% 29.78 in - NE 4.6 mph - 0.15 in   Overcast
7:55 AM 61.0 °F 61.0 °F 100% 29.77 in - NE 5.8 mph - 0.20 in   Overcast
8:15 AM 61.7 °F 61.7 °F 100% 29.77 in - NE 6.9 mph - 0.06 in   Overcast
8:35 AM 61.9 °F 61.9 °F 100% 29.78 in - East 4.6 mph - 0.49 in   Overcast
8:55 AM 62.6 °F 62.6 °F 100% 29.74 in - NNE 10.4 mph - 0.72 in   Unknown
9:15 AM 63.3 °F 63.3 °F 100% 29.72 in - NNE 9.2 mph 18.4 mph 0.18 in   Unknown
9:35 AM 63.7 °F 63.7 °F 100% 29.72 in - NNE 4.6 mph - 0.27 in   Overcast
9:55 AM 64.0 °F 64.0 °F 100% 29.73 in - North 3.5 mph - N/A   Overcast
10:15 AM 64.4 °F 64.4 °F 100% 29.72 in - NNE 6.9 mph - 0.06 in   Unknown
10:35 AM 64.4 °F 64.4 °F 100% 29.71 in - North 9.2 mph - 0.10 in   Unknown
10:55 AM 64.8 °F 64.8 °F 100% 29.70 in - North 8.1 mph 17.3 mph 0.16 in   Unknown
11:15 AM 65.3 °F 65.3 °F 100% 29.69 in 5.0 mi NNE 8.1 mph - 0.04 in   Overcast
11:35 AM 65.5 °F 65.5 °F 100% 29.68 in - NNE 5.8 mph - 0.09 in   Overcast
11:55 AM 65.8 °F 65.8 °F 100% 29.67 in 2.0 mi NNE 3.5 mph - 0.16 in   Overcast
12:15 PM 65.8 °F 65.8 °F 100% 29.66 in 2.0 mi North 10.4 mph 16.1 mph 0.03 in   Overcast
12:55 PM 66.2 °F 66.2 °F 100% 29.66 in - NNW 10.4 mph - 0.08 in   Overcast
1:15 PM - - N/A% - - North - - N/A   Unknown
1:35 PM 66.2 °F 66.2 °F 100% 29.65 in 1.8 mi NW 10.4 mph - 0.01 in   Overcast
1:55 PM 65.5 °F 65.5 °F 100% 29.65 in 1.5 mi NNW 9.2 mph - 0.02 in   Overcast
2:15 PM 65.7 °F 65.7 °F 100% 29.65 in 1.8 mi NW 9.2 mph - N/A   Overcast
2:35 PM 65.3 °F 65.3 °F 100% 29.66 in 1.5 mi NW 12.7 mph 16.1 mph N/A   Overcast
2:55 PM 64.4 °F 64.4 °F 100% 29.67 in 1.0 mi WNW 11.5 mph - N/A   Overcast
3:15 PM 63.0 °F 62.6 °F 99% 29.68 in 1.5 mi WNW 13.8 mph 20.7 mph 0.01 in   Overcast
3:35 PM 62.2 °F 61.7 °F 98% 29.70 in 1.8 mi NW 15.0 mph 21.9 mph 0.01 in   Overcast
3:55 PM 61.7 °F 61.0 °F 97% 29.71 in 2.0 mi WNW 13.8 mph 20.7 mph 0.01 in   Overcast
4:15 PM 61.2 °F 60.8 °F 99% 29.72 in - WNW 12.7 mph - N/A   Overcast
4:35 PM 60.6 °F 60.1 °F 98% 29.73 in 2.0 mi WNW 10.4 mph - N/A   Overcast
4:55 PM 60.1 °F 59.5 °F 98% 29.74 in - WNW 9.2 mph 19.6 mph N/A   Overcast
5:35 PM 59.0 °F 58.5 °F 98% 29.77 in 7.0 mi WNW 11.5 mph 18.4 mph N/A   Overcast
5:55 PM 58.5 °F 57.7 °F 97% 29.78 in 7.0 mi WNW 11.5 mph 18.4 mph N/A   Overcast
6:15 PM 58.1 °F 57.4 °F 97% 29.79 in 5.0 mi WNW 11.5 mph 18.4 mph N/A   Overcast
6:35 PM 58.1 °F 57.2 °F 97% 29.80 in - WNW 11.5 mph 17.3 mph N/A   Overcast
6:55 PM 57.7 °F 57.2 °F 98% 29.81 in 4.0 mi WNW 12.7 mph - N/A   Overcast
7:15 PM 57.7 °F 56.8 °F 97% 29.81 in 7.0 mi NW 13.8 mph 19.6 mph N/A   Overcast
7:35 PM 57.6 °F 56.5 °F 96% 29.83 in 10.0 mi WNW 11.5 mph 20.7 mph N/A   Overcast
7:55 PM 57.7 °F 56.3 °F 95% 29.84 in 10.0 mi NW 11.5 mph 17.3 mph N/A   Overcast
8:15 PM 57.7 °F 55.8 °F 93% 29.85 in 10.0 mi NW 12.7 mph 18.4 mph N/A   Overcast
8:35 PM 58.1 °F 55.8 °F 92% 29.86 in 10.0 mi WNW 9.2 mph - N/A   Overcast
8:55 PM 58.1 °F 55.4 °F 91% 29.87 in - NW 10.4 mph 17.3 mph N/A   Overcast
9:15 PM 58.1 °F 55.4 °F 91% 29.88 in 10.0 mi NW 10.4 mph 18.4 mph N/A   Overcast
9:35 PM 58.1 °F 55.4 °F 91% 29.89 in 10.0 mi NW 10.4 mph 17.3 mph N/A   Overcast
10:15 PM 58.3 °F 55.4 °F 90% 29.91 in 10.0 mi WNW 8.1 mph - N/A   Overcast
10:35 PM 58.3 °F 55.4 °F 90% 29.92 in 10.0 mi WNW 8.1 mph - N/A   Overcast
10:55 PM 58.5 °F 55.6 °F 90% 29.92 in 10.0 mi WNW 9.2 mph - N/A   Overcast
11:15 PM 58.5 °F 55.8 °F 91% 29.94 in 10.0 mi WNW 11.5 mph 19.6 mph N/A   Overcast
11:35 PM 58.1 °F 55.8 °F 92% 29.95 in - WNW 10.4 mph 16.1 mph N/A   Overcast
11:55 PM 57.4 °F 55.9 °F 95% 29.95 in 5.0 mi WNW 10.4 mph - N/A   Overcast